Weather in Polushkino

Russia / Moscow Oblast     55°40′56″N   38°05′41″E
В апреле 2022 года жителям России запретили посещать сайт meteo.paraplan.net по решению Генеральной прокуратуры. Аудитория сайта уменьшилась в 10 раз. Владельцы сайта не видят смысла в поддержке погодного сервера в таких условиях. Сайт будет закрыт в октябре.
temp.,
°C
wind,
m/s
gust,
m/s
humid.,
%
clouds,
%
prec.,
mm/h
press.,
hPa
HPBL,
m
25 september, sun
sun2500:00+8ssw2395100 1.7 996288
03:00+8s3596100 3.1 997400
06:00+7se4697100 1.8 997396
09:00+7e4896100 5.6 999421
12:00+7e4694100 2.2 1001418
15:00+7ene2492100 2.3 1002395
18:00+7nne2394100 0.2 1004313
21:00+7n1294100 0.5 1005181
26 september, mon
mon2600:00+7nnw1290100 0.2 1005116
03:00+7wnw138990 0.5 1006145
06:00+7wnw258995 0.4 1007288
09:00+8w358099 0.6 1007615
12:00+9wnw457799 0.2 1008785
15:00+10wnw357061 0.3 1009808
18:00+9w2576100 0.1 1010293
21:00+8w2484100 0.5 1011172
27 september, tue
tue2700:00+7wsw23919 0.3 101278
03:00+6sw119261 0.3 101326
06:00+5s119279 0.0 101322
09:00+8se1284100 0.0 1013185
12:00+11sse226856 0.0 1014669
15:00+13sse225626 0.1 10141228
18:00+10ese246979 0.0 1014114
21:00+8se2582100 0.0 1015155
28 september, wed
wed2800:00+7ese388792 0.0 1014232
03:00+6e3987100 0.0 1014287
06:00+7e41284100 0.0 1013471
09:00+9e51474100 0.0 1012726
12:00+10e61367100 0.1 10111031
15:00+9e71485100 1.7 10101011
18:00+8e61393100 4.3 1009954
21:00+7e71492100 6.9 1009698
29 september, thu
thu2900:00+7ene61493100 1.1 1008659
03:00+7ene61394100 4.4 1008583
06:00+6ene61394100 5.7 1008538
09:00+6ene51194100 7.1 1010574
12:00+6ene4992100 0.1 1012546
15:00+5ene4892100 0.3 1015471
18:00+4ene4892100 0.2 1017481
21:00+4e4891100 0.3 1019516